Regional Weather Roundup
Issued by NWS

Home | Current Version | Previous Version | Text Only | Print | Product List | Glossary Off
Versions: 1 2 3 4 5 6 7 8 9 10 11 12 13 14 15 16 17 18 19 20 21 22 23 24 25 26 27 28 29 30 31 32 33 34 35 36 37 38 39 40 41 42 43 44 45 46 47 48 49 50

000
ASUS43 KIND 270159
RWRIN

WEATHER ROUNDUP FOR INDIANA
NATIONAL WEATHER SERVICE INDIANAPOLIS IN
1000 PM EDT MON SEP 26 2016

NOTE: "FAIR" INDICATES FEW OR NO CLOUDS BELOW 12,000 FEET WITH NO
SIGNIFICANT WEATHER AND/OR OBSTRUCTIONS TO VISIBILITY.

* - STATION DOES NOT REPORT WEATHER SUCH AS PRECIPITATION OR FOG.

+ - STATION NOT QUALITY CONTROLLED BY THE NATIONAL WEATHER SERVICE.
    USE DATA WITH CAUTION...ESPECIALLY DEWPOINT AND RELATIVE
    HUMIDITY OBSERVATIONS.

INZ001>003-010>013-019-020-270300-
NORTHWEST INDIANA

CITY           SKY/WX    TMP DP  RH WIND       PRES   REMARKS
KNOX *+        CLEAR     57  12  17 W7        29.97S
MONTICELLO +   CLEAR     57  32  38 SW6       29.99R
RENSSELAER +   CLEAR     54  39  58 W6        29.99S

$$

LMZ046-743>745-270300-
SOUTHERN LAKE MICHIGAN

STATION/POSITION TIME  TEMP    WIND        PRES    WAVE
                       AIR SEA DIR/SP/G            HT
                 (UTC) (F)     (DEG/KT/KT) (MB)    (FT)
BURNS HARBOR     0104   67     260/ 16/ 20 1014.6R
MICHIGAN CITY    0100   67     250/ 25/ 28   N/A
5NW MICH CITY    0100   68 67  280/ 19/ 25   N/A     6

$$

INZ004-005-014>016-021>024-270300-
NORTH CENTRAL INDIANA

CITY           SKY/WX    TMP DP  RH WIND       PRES   REMARKS
GOSHEN         CLEAR     53  39  59 SW8       29.95S
SOUTH BEND     CLEAR     53  41  63 SW7       29.96R
WARSAW +       CLEAR     55  34  44 SW5       29.97S

$$

INZ006>009-017-018-025>027-270300-
NORTHEAST INDIANA

CITY           SKY/WX    TMP DP  RH WIND       PRES   REMARKS
ANGOLA *+        N/A     50  39  66 CALM      29.95S
AUBURN +       CLEAR     57  37  47 S6        29.97S
FORT WAYNE     CLEAR     52  42  69 SW7       29.98R
KENDALLVILLE + CLEAR     54  40  59 SW5       29.96S

$$

INZ028-029-035-036-043>045-051>053-270300-
WEST CENTRAL INDIANA

CITY           SKY/WX    TMP DP  RH WIND       PRES   REMARKS
CRAWFORDSVL +  CLEAR     52  43  71 SW5       30.04R
GREENCASTLE +  CLEAR     52  50  93 CALM      30.05S
LAFAYETTE      CLEAR     54  45  71 W5        30.01R
TERRE HAUTE    CLEAR     54  45  71 CALM      30.05R

$$

INZ030>032-037>040-046>048-054>057-064-065-270300-
CENTRAL INDIANA

CITY           SKY/WX    TMP DP  RH WIND       PRES   REMARKS
COLUMBUS       CLEAR     57  54  88 S5        30.06R
FRANKFORT +    MOCLDY    55  42  61 W7        30.04R
INDIANAPOLIS   CLEAR     56  46  69 SW7       30.03R
-EAGLE CREEK   CLEAR     59  42  53 SW6       30.03R
MT COMFORT *+  CLEAR     55  45  67 S6        30.04S
SHELBYVILLE    CLEAR     57  49  74 S7        30.04R
ZIONSVILLE +   CLEAR     51  43  73 SW6       30.04R

$$

INZ033-034-041-042-049-050-058-059-270300-
EAST CENTRAL INDIANA

CITY           SKY/WX    TMP DP  RH WIND       PRES   REMARKS
MUNCIE         CLEAR     59  42  53 SW6       30.02R

$$

INZ060-061-067>069-081>083-085>088-270300-
SOUTHWEST INDIANA

CITY           SKY/WX    TMP DP  RH WIND       PRES   REMARKS
EVANSVILLE     CLEAR     61  50  67 W5        30.09S
HUNTINGBURG *+   N/A     55  48  76 CALM      30.09S

$$

INZ062-063-066-070>080-084-089>092-270300-
SOUTH CENTRAL AND SOUTHEAST INDIANA

CITY           SKY/WX    TMP DP  RH WIND       PRES   REMARKS
BLOOMINGTON    CLEAR     54  47  77 SW5       30.06R
MADISON *+     CLEAR     54  50  87 CALM      30.09S
SEYMOUR +      CLEAR     54  50  87 CALM      30.06S

$$




USA.gov is the U.S. government's official web portal to all federal, state and local government web resources and services.